Regional Weather Roundup
Issued by NWS

Home | Current Version | Previous Version | Graphics & Text | Print | Product List | Glossary Off
Versions: 1 2 3 4 5 6 7 8 9 10 11 12 13 14 15 16 17 18 19 20 21 22 23 24 25 26 27 28 29 30 31 32 33 34 35 36 37 38 39 40 41 42 43 44 45 46 47 48 49 50

000
ASUS43 KDMX 221601
RWRIA

WEATHER ROUNDUP FOR IOWA
NATIONAL WEATHER SERVICE DES MOINES IA
1100 AM CDT TUE AUG 22 2017

NOTE: "FAIR" INDICATES FEW OR NO CLOUDS BELOW 12,000 FEET WITH NO
SIGNIFICANT WEATHER AND/OR OBSTRUCTIONS TO VISIBILITY.

* - THESE STATIONS ARE NOT NWS STATIONS...THUS NOT UNDER NWS
QUALITY CONTROL.  THEY ALSO DO NOT REPORT WEATHER SUCH
AS PRECIPITATION OR FOG.

IAZ001>003-012>014-020>022-031>034-043>046-221700-
   NORTHWEST IOWA

CITY           SKY/WX    TMP DP  RH WIND       PRES   REMARKS
CARROLL *      SUNNY     68  54  60 N14       30.14R
CHEROKEE *     SUNNY     67  53  60 N10       30.17R
DENISON *      SUNNY     68  52  56 N16       30.17S
LE MARS *      SUNNY    104 N/A N/A N8G16     30.18S
ORANGE CITY *  SUNNY     70  55  60 N9        30.19R
SHELDON *      SUNNY     68  54  60 NW9       30.16S
SIOUX CITY     SUNNY     70  57  63 N10       30.18R
SPENCER        SUNNY     69  49  48 NW16      30.16R
STORM LAKE *   SUNNY     66  52  59 N12       30.16S
$$

IAZ055>058-069>071-079>083-090>094-221700-
   SOUTHWEST IOWA

CITY           SKY/WX    TMP DP  RH WIND       PRES   REMARKS
ATLANTIC *     SUNNY     70  54  56 N10       30.15R
AUDUBON *      SUNNY     70  54  56 N10       30.16R
CLARINDA *     SUNNY     72  59  64 N12G18    30.16R
COUNCIL BLFS * SUNNY     70  54  56 N10G17    30.17S
CRESTON *      SUNNY     72  55  56 N15G23    30.14R
HARLAN  *      SUNNY     68  54  60 N9G15     30.19S
LAMONI         MOSUNNY   73  59  61 N12       30.11R
RED OAK *      SUNNY     72  55  56 N15       30.15R
SHENANDOAH *   SUNNY     73  57  56 MISG      30.16R
$$

IAZ047>049-059>061-072>074-084-221700-
   CENTRAL IOWA

CITY           SKY/WX    TMP DP  RH WIND       PRES   REMARKS
AMES           SUNNY     69  61  75 N17       30.10R
ANKENY *       SUNNY     70  57  64 NW14G23   30.10R
BOONE *        SUNNY     68  55  64 N16       30.10R
CHARITON *     SUNNY     72  61  68 NW15      30.09R
DES MOINES     MOSUNNY   72  59  63 NW13      30.08R
GRINNELL*      MOSUNNY   69  61  76 NW13G18   30.07S
KNOXVILLE *    MOSUNNY   72  59  64 NW16      30.07R
MARSHALLTOWN   SUNNY     69  58  67 NW17      30.06R
NEWTON *       SUNNY     70  61  73 N16       30.07S
PELLA *        MOSUNNY   72  60  67 N12G17    30.08R
PERRY *          N/A     69  58  68 N8        30.13R
$$

IAZ004>006-015-016-023>025-035-036-221700-
   NORTH CENTRAL IOWA

CITY           SKY/WX    TMP DP  RH WIND       PRES   REMARKS
ALGONA *       SUNNY     68  54  60 N10G18    30.13R
CLARION *      SUNNY     66  57  72 N13G20    30.11R
ESTHERVILLE    SUNNY     66  53  63 NW13G20   30.13R
FORT DODGE *   SUNNY     66  55  68 N9        30.11R
FOREST CITY *    N/A     66  54  63 N16       30.10R
WEBSTER CITY * SUNNY     68  55  64 NW12      30.09R
IOWA FALLS *     N/A     68  57  67 NW13G21   30.09R
$$

IAZ007>011-017>019-026>030-037>042-050>054-066-221700-
   NORTHEAST IOWA

CITY           SKY/WX    TMP DP  RH WIND       PRES   REMARKS
CEDAR RAPIDS   MOSUNNY   70  61  73 NW14G22   30.02R
CHARLES CITY * MOSUNNY   68  57  68 NW17      30.06R
DECORAH *      MOSUNNY   66  55  68 NW14G21   30.00S
DUBUQUE        MOSUNNY   70  60  70 NW14      29.99R
MONTICELLO *   MOSUNNY   72  61  68 NW10      29.99R
OELWEIN *      MOSUNNY   68  59  73 NW14G24   30.04R
WATERLOO       PTSUNNY   69  59  70 N16       30.03R
$$

IAZ064-065-067-068-078-221700-
   EAST CENTRAL IOWA

CITY           SKY/WX    TMP DP  RH WIND       PRES   REMARKS
DAVENPORT      CLOUDY    69  62  78 W9        30.01R
IOWA CITY      MOSUNNY   73  60  63 N15       30.03R
MUSCATINE *    CLOUDY    72  63  73 NW12G20   30.01R
QUAD CITIES    CLOUDY    70  62  76 NW15      29.98R
$$

IAZ062-063-075>077-085>089-095>099-221700-
   SOUTHEAST IOWA

CITY           SKY/WX    TMP DP  RH WIND       PRES   REMARKS
BURLINGTON     MOSUNNY   75  67  76 NW10      30.00R
FAIRFIELD *    PTSUNNY   72  63  73 NW15G23   30.03R
FORT MADISON * MOSUNNY   75  66  73 NW12G18   30.02R
KEOKUK *       SUNNY     75  66  73 NW13      30.01S
OSKALOOSA *      N/A     72  61  68 NW10G16   30.06R
OTTUMWA        MOSUNNY   74  62  66 NW15      30.04R
WASHINGTON *   PTSUNNY   72  64  78 N14G20    30.04R
$$

ABBREVIATIONS USED IN REMARKS
   TC - TEMPERATURES IN CELSIUS
  WCI - WIND CHILL INDEX
   HX - HEAT INDEX
  VSB - VISIBILITY
$$




USA.gov is the U.S. government's official web portal to all federal, state and local government web resources and services.